This demonstration page uses our WeatherBlox Daily Observations layout. Learn more.

Left ArrowRight Arrow

41.12389, -100.76542

Hourly Observations for January 25, 2018

Temp ( °F °C ) Dew Point ( °F °C ) Humidity (%) Winds ( mph kmh ) Pressure ( in mb ) Visibility ( mi km ) Precip ( " mm )
12:53 am 00:53 Clear 10 -12.2 7 -13.9 87 87 WNW 5 7 30.17 1022 9 14 0.00 0.00
1:00 am 01:00 Mostly Cloudy with Haze 12 -11.1 7 -13.9 80 80 S 5 7 30.30 1026 1 2 0.00 0.00
1:07 am 01:07 Mostly Cloudy with Freezing Fog 11 -11.7 8 -13.3 88 88 SSW 3 6 30.33 1027 1 1 0.00 0.00
1:13 am 01:13 Clear with Mist and Fog 15 -9.4 12 -11.1 88 88 SW 3 6 30.30 1026 1 2 0.00 0.00
1:16 am 01:16 Clear with Mist and Fog 12 -11.1 10 -12.2 92 92 SW 5 7 30.30 1026 4 6 0.00 0.00
1:53 am 01:53 Clear 13 -10.6 11 -11.7 92 92 NW 5 7 30.15 1021 9 14 0.00 0.00
2:53 am 02:53 Clear 14 -10 10 -12.2 84 84 Calm 30.13 1020 10 16 0.00 0.00
3:53 am 03:53 Clear 14 -10 11 -11.7 88 88 NW 3 6 30.11 1020 9 14 0.00 0.00
4:53 am 04:53 Clear 16 -8.9 11 -11.7 80 80 N 3 6 30.09 1019 9 14 0.00 0.00
5:53 am 05:53 Clear 14 -10 11 -11.7 88 88 WNW 3 6 30.10 1019 9 14 0.00 0.00
6:53 am 06:53 Clear 14 -10 11 -11.7 88 88 Calm 30.09 1019 7 11 0.00 0.00
7:53 am 07:53 Clear 11 -11.7 7 -13.9 84 84 Calm 30.11 1020 7 11 0.00 0.00
8:53 am 08:53 Sunny 14 -10 10 -12.2 84 84 Calm 30.10 1019 7 11 0.00 0.00
9:53 am 09:53 Sunny with Mist and Fog 19 -7.2 18 -7.8 96 96 Calm 30.08 1019 5 8 0.00 0.00
10:53 am 10:53 Sunny 26 -3.3 20 -6.7 78 78 Calm 30.07 1018 10 16 0.00 0.00
11:53 am 11:53 Sunny 34 1.1 24 -4.4 67 67 Calm 30.03 1017 10 16 0.00 0.00
12:53 pm 12:53 Sunny 39 3.9 25 -3.9 57 57 Calm 29.97 1015 10 16 0.00 0.00
1:53 pm 13:53 Sunny 42 5.6 26 -3.3 53 53 Calm 29.90 1013 10 16 0.00 0.00
2:53 pm 14:53 Sunny 42 5.6 27 -2.8 55 55 SW 3 6 29.88 1012 10 16 0.00 0.00
3:53 pm 15:53 Sunny 40 4.4 28 -2.2 63 63 ESE 8 13 29.86 1011 10 16 0.00 0.00
4:53 pm 16:53 Sunny 37 2.8 29 -1.7 73 73 ESE 8 13 29.84 1011 10 16 0.00 0.00
5:53 pm 17:53 Clear 35 1.7 26 -3.3 70 70 E 6 9 29.84 1011 10 16 0.00 0.00
6:53 pm 18:53 Clear 32 0 25 -3.9 75 75 ESE 10 17 29.83 1010 10 16 0.00 0.00
7:53 pm 19:53 Clear 30 -1.1 24 -4.4 79 79 ESE 8 13 29.81 1010 10 16 0.00 0.00
8:53 pm 20:53 Clear 29 -1.7 24 -4.4 82 82 E 3 6 29.79 1009 10 16 0.00 0.00
9:53 pm 21:53 Clear 42 5.6 24 -4.4 49 49 S 9 15 29.74 1007 10 16 0.00 0.00
10:53 pm 22:53 Clear 42 5.6 24 -4.4 49 49 Calm 29.73 1007 10 16 0.00 0.00
11:53 pm 23:53 Clear 43 6.1 25 -3.9 49 49 ESE 7 11 29.70 1006 10 16 0.00 0.00

Powered by AerisWeather